Voltar ao catálogo

ONEWEB-0053

AtivoComunicaçõesPO
NORAD 45157·PAYLOAD·🇬🇧 United Kingdom

Lançado Feb 6, 2020 de Baikonur Cosmodrome

Loading…

Próximas Passagens (próximas 24 horas)

TLE

AtualizadoSource: CelesTrak SupGP

Época: Sep 14, 2026, 17:09 UTC

1 45157C 20008AC  26257.71473796  .00002632  00000+0  75481-2 0  2574
2 45157  87.8910  18.4556 0002120 109.3930   2.7929 13.10375071    14

Acompanhe ONEWEB-0053 em tempo real com AllMySat

Download on the App Store